Home > Time Zones > World Clock > Weather > Italy > Genoa > Past weeks

Flag for Italy Weather past 2 weeks in Genoa, Italy

Now
73 °F

Passing clouds.


Feels Like: 76 °F
Forecast: 62 / 76 °F
Wind: 9 mph from Southeast

Location: Genova / Sestri

Current Time: Sep 5, 2015 at 3:34:21 AM

Latest Report: Sep 5, 2015 at 2:50 AM


Visibility: N/A

Pressure: 29.83 "Hg

Humidity: 65%

Dew point: 61 °F

Location of GenoaLocation

Historic Weather in Genoa — Graph

°F

Genoa temperature yesterday

Maximum temperature yesterday: 79 °F (at 11:20 AM)
Minimum temperature yesterday: 73 °F (at 1:20 AM)
Average temperature yesterday: 75 °F

Past Weeks' High & Low Weather Summary

 TemperatureHumidityPressure
High88 °F (Aug 29, 11:20 AM)89% (Aug 25, 1:20 AM)30.18 "Hg (Aug 25, 1:20 AM)
Low66 °F (Aug 24, 6:50 AM)38% (Aug 29, 10:50 AM)29.80 "Hg (Aug 24, 6:50 AM)
Average76 °F64%29.99 "Hg
* Reported Aug 21 2:20 AM — Sep 5 2:20 AM, Genoa, Weather by CustomWeather, © 2015

Note: Actual official high and low records may vary slightly from our data, if they occured in-between our weather recording intervals... More about our weather records

Advertising

Genoa weather history for previous 24 hours

 ConditionsComfort  
Time TempWeatherWind HumidityBarometerVisibility
2:20 AM
Sat, Sep 5
73 °FPassing clouds.8 mph69%29.83 "HgN/A
1:50 AM73 °FPassing clouds.8 mph69%29.83 "HgN/A
1:20 AM73 °FPassing clouds.7 mph69%29.86 "HgN/A
12:50 AM73 °FPassing clouds.7 mph65%29.86 "HgN/A
12:20 AM73 °FPassing clouds.9 mph69%29.86 "HgN/A
11:20 PM
Fri, Sep 4
75 °FPassing clouds.10 mph61%29.86 "HgN/A
10:50 PM73 °FPassing clouds.12 mph65%29.86 "HgN/A
10:20 PM73 °FPassing clouds.12 mph61%29.86 "HgN/A
9:50 PM73 °FPassing clouds.12 mph65%29.86 "HgN/A
9:20 PM73 °FPassing clouds.14 mph65%29.86 "HgN/A
8:50 PM73 °FPartly sunny.13 mph65%29.86 "HgN/A
8:20 PM73 °FPartly sunny.12 mph65%29.86 "HgN/A
7:50 PM73 °FPartly sunny.12 mph65%29.86 "HgN/A
7:20 PM73 °FScattered clouds.10 mph65%29.86 "HgN/A
6:50 PM75 °FPassing clouds.12 mph61%29.86 "HgN/A
6:20 PM75 °FScattered clouds.10 mph65%29.86 "HgN/A
5:50 PM75 °FScattered clouds.10 mph57%29.89 "HgN/A
5:20 PM75 °FScattered clouds.9 mph61%29.89 "HgN/A
4:50 PM77 °FScattered clouds.12 mph57%29.89 "HgN/A
4:20 PM75 °FPartly sunny.10 mph61%29.89 "HgN/A
3:50 PM75 °FPartly sunny.13 mph61%29.89 "HgN/A
3:20 PM75 °FPartly sunny.13 mph61%29.89 "HgN/A
2:50 PM77 °FPartly sunny.12 mph57%29.89 "HgN/A
2:20 PM77 °FScattered clouds.14 mph57%29.89 "HgN/A
1:50 PM79 °FScattered clouds.14 mph54%29.89 "HgN/A
1:20 PM77 °FScattered clouds.13 mph57%29.92 "HgN/A
12:50 PM79 °FScattered clouds.12 mph54%29.92 "HgN/A
12:20 PM77 °FScattered clouds.13 mph57%29.92 "HgN/A
11:50 AM79 °FScattered clouds.14 mph54%29.92 "HgN/A
11:20 AM79 °FScattered clouds.14 mph58%29.92 "HgN/A
10:50 AM77 °FScattered clouds.14 mph57%29.89 "HgN/A
10:20 AM77 °FScattered clouds.13 mph61%29.89 "HgN/A
9:50 AM77 °FScattered clouds.13 mph54%29.89 "HgN/A
9:20 AM75 °FScattered clouds.13 mph65%29.89 "HgN/A
8:50 AM75 °FScattered clouds.13 mph65%29.89 "HgN/A
8:20 AM73 °FScattered clouds.7 mph69%29.89 "HgN/A
7:50 AM73 °FScattered clouds.8 mph65%29.89 "HgN/A
7:20 AM73 °FPassing clouds.12 mph65%29.89 "HgN/A
6:50 AM73 °FPassing clouds.12 mph65%29.86 "HgN/A
6:20 AM73 °FPassing clouds.10 mph65%29.86 "HgN/A
5:50 AM73 °FPassing clouds.12 mph65%29.86 "HgN/A
5:20 AM73 °FPassing clouds.10 mph65%29.86 "HgN/A
4:50 AM73 °FPassing clouds.9 mph69%29.86 "HgN/A
4:20 AM73 °FPassing clouds.12 mph69%29.86 "HgN/A
3:50 AM73 °FPassing clouds.10 mph65%29.86 "HgN/A
3:20 AM73 °FPassing clouds.10 mph65%29.86 "HgN/A
Weather by CustomWeather, © 2015

See weather overviewHow to use our weather pages